Regional Weather Roundup
Issued by NWS

Home | Current Version | Previous Version | Graphics & Text | Print | Product List | Glossary On
Versions: 1 2 3 4 5 6 7 8 9 10 11 12 13 14 15 16 17 18 19 20 21 22 23 24 25 26 27 28 29 30 31 32 33 34 35 36 37 38 39 40 41 42 43 44 45 46 47 48 49 50
667
ASUS45 KCYS 281310
RWRWY

WYOMING REGIONAL WEATHER ROUNDUP
NATIONAL WEATHER SERVICE CHEYENNE WY
700 AM MDT TUE MAR 28 2017

NOTE:  "FAIR" INDICATES FEW OR NO CLOUDS BELOW 12,000 FEET
WITH NO SIGNIFICANT WEATHER AND/OR OBSTRUCTIONS TO VISIBILITY.

WYZ001-281400-
YELLOWSTONE NATIONAL PARK

CITY           SKY/WX    TMP DP  RH WIND       PRES   REMARKS
LK YELLOWSTONE   N/A     23  21  92 CALM      30.11R
W YELLOWSTONE  NOT AVBL

$$
WYZ002>013-054>058-071-098>099-281400-
NORTHERN WYOMING

CITY           SKY/WX    TMP DP  RH WIND       PRES   REMARKS
JACKSON        PTCLDY    30  28  93 N6        30.07R WCI  24
CODY           LGT RAIN  35  34  96 NE7       30.08R WCI  29
GREYBULL       LGT RAIN  41  34  76 NW23      30.02R
WORLAND        CLOUDY    39  36  89 NW16      30.03R WCI  30
SHERIDAN       LGT RAIN  38  35  89 NW22G30   30.04R WCI  27
BUFFALO        LGT RAIN  37  33  85 NW20G28   30.02R WCI  27
GILLETTE       FAIR      39  36  89 NW3       29.98R
HULETT         PTSUNNY   37  34  87 CALM      29.99R
NEWCASTLE      CLOUDY    41  34  75 N5        29.97R

$$
WYZ014>020-022>026-101>103-281400-
CENTRAL WYOMING

CITY           SKY/WX    TMP DP  RH WIND       PRES   REMARKS
BIG PINEY      CLOUDY    32  26  78 N14       30.01R WCI  22
PINEDALE       FLURRIES  32  30  93 N12       30.01R WCI  23
DUBOIS         CLOUDY    32  28  86 CALM      30.02R
LANDER         LGT RAIN  37  36  96 NW10      29.99R WCI  30
RIVERTON       CLOUDY    37  32  82 N24G30    29.99R WCI  26
CASPER         CLOUDY    40  36  86 NE9       29.94R WCI  34
DOUGLAS        CLOUDY    40  38  93 N6        29.95R

$$
WYZ021-027>030-104>119-281400-
SOUTHERN WYOMING

CITY           SKY/WX    TMP DP  RH WIND       PRES   REMARKS
EVANSTON         N/A     31  27  85 N14       30.04R WCI  21
KEMMERER         N/A     30  27  86 W9        30.02R WCI  22
FORT BRIDGER   CLOUDY    32  32 100 W12       30.04R WCI  23
ROCK SPRINGS   LGT SNOW  33  31  92 NW12      29.96R VSB 1   WCI  24
DIXON            N/A     36  34  94 CALM      29.91R
RAWLINS        CLOUDY    36  34  92 NE8       29.92R WCI  30
SARATOGA       CLOUDY    34  34 100 NW5       29.90S WCI  30
LARAMIE        CLOUDY    35  34  96 N9        29.88R WCI  28
CHEYENNE       CLOUDY    37  37 100 N10       29.87R FOG     WCI  30
TORRINGTON     CLOUDY    45  44  97 SE13      29.88R
PINE BLUFFS    CLOUDY    41  41 100 E5        29.87S

$$




USA.gov is the U.S. government's official web portal to all federal, state and local government web resources and services.